1505178000.4,60739,16.25,73224.8,6.43,5.49,5.51,0,*7E
1505178001.63,60740,16.25,73224.3,6.43,5.37,5.51,0,*79
1505178002.85,60741,16.25,73226.5,6.43,5.37,5.51,0,*78
1505178004.08,60742,16.25,73228.3,6.43,5.37,5.51,0,*7B
1505178005.31,60743,16.25,73224.0,6.43,5.41,5.51,0,*7B
1505178006.54,60744,16.25,73230.0,6.43,5.41,5.51,0,*7C
1505178007.71,60745,16.25,73228.3,6.41,5.29,5.59,0,*79
1505178008.93,60746,16.25,73228.8,6.43,5.29,5.51,0,*70
1505178010.13,60747,16.25,73230.5,6.43,5.29,5.49,0,*78
1505178011.36,60748,16.25,73230.5,6.47,5.33,5.51,0,*71
1505178012.55,60749,16.25,73232.0,6.45,5.45,5.55,0,*77
1505178013.75,60750,16.25,73232.0,6.45,5.41,5.55,0,*7B
1505178014.95,60751,16.25,73230.3,6.45,5.33,5.55,0,*7F
1505178016.17,60752,16.25,73228.5,6.43,5.37,5.51,0,*7A
1505178017.4,60753,16.25,73228.0,6.43,5.37,5.51,0,*7B
1505178018.6,60754,16.25,73234.0,6.43,5.41,5.63,0,*7C
1505178019.81,60755,16.25,73232.5,6.43,5.49,5.59,0,*7C
1505178021.01,60756,16.25,73228.3,6.41,5.49,5.51,0,*75
1505178022.21,60757,16.25,73230.0,6.43,5.49,5.59,0,*7E
1505178023.41,60758,16.25,73230.8,6.43,5.49,5.59,0,*71
1505178024.64,60759,16.25,73232.0,6.43,5.51,5.59,0,*79
1505178025.86,60760,16.25,73234.0,6.43,5.51,5.71,0,*79
1505178027.07,60761,16.25,73234.5,6.43,5.59,5.63,0,*73
1505178028.27,60762,16.25,73236.0,6.45,5.55,5.67,0,*7E
1505178029.49,60763,16.25,73232.5,6.47,5.63,5.73,0,*7D
1505178030.67,60764,16.25,73236.8,6.45,5.63,5.67,0,*7D
1505178031.89,60765,16.25,73234.5,6.43,5.51,5.63,0,*7F
1505178033.1,60766,16.25,73232.3,6.43,5.59,5.63,0,*74
1505178034.3,60767,16.25,73234.8,6.43,5.59,5.71,0,*76
1505178035.5,60768,16.25,73232.8,6.45,5.55,5.67,0,*74
1505178036.68,60769,16.25,73234.3,6.45,5.63,5.67,0,*70
1505178037.86,60770,16.25,73232.5,6.45,5.63,5.67,0,*78
1505178039.04,60771,16.25,73232.8,6.45,5.63,5.67,0,*79
1505178040.27,60772,16.25,73232.0,6.47,5.55,5.67,0,*7D
1505178041.45,60773,16.25,73234.3,6.45,5.67,5.67,0,*7F
1505178042.63,60774,16.25,73234.5,6.45,5.67,5.67,0,*78
1505178043.83,60775,16.25,73234.5,6.45,5.73,5.67,0,*7C
1505178045.01,60776,16.25,73234.8,6.45,5.67,5.67,0,*7A
1505178046.19,60777,16.25,73236.0,6.45,5.67,5.63,0,*7F
1505178047.4,60778,16.25,73232.3,6.45,5.67,5.55,0,*75
1505178048.6,60779,16.25,73234.8,6.45,5.73,5.63,0,*74
1505178049.78,60780,16.25,73232.8,6.45,5.67,5.67,0,*73
1505178050.96,60781,16.25,73234.0,6.45,5.67,5.67,0,*72
1505178052.18,60782,16.25,73232.8,6.45,5.73,5.73,0,*71
1505178053.36,60783,16.25,73232.3,6.45,5.67,5.67,0,*70
1505178054.56,60784,16.25,73236.5,6.45,5.73,5.67,0,*72
1505178055.79,60785,16.25,73238.8,6.45,5.73,5.73,0,*76
1505178057.01,60786,16.25,73236.5,6.45,5.73,5.73,0,*75
1505178058.23,60787,16.25,73234.3,6.45,5.73,5.73,0,*74
1505178059.43,60788,16.25,73238.3,6.45,5.73,5.67,0,*7E
1505178060.64,60789,16.25,73236.0,6.45,5.73,5.67,0,*7F
1505178061.86,60790,16.25,73234.0,6.45,5.73,5.73,0,*72
1505178063.1,60791,16.25,73232.3,6.47,5.73,5.73,0,*71
1505178064.32,60792,16.25,73232.0,6.45,5.73,5.73,0,*70
1505178065.55,60793,16.25,73234.5,6.45,5.73,5.73,0,*71
1505178066.77,60794,16.25,73234.3,6.45,5.73,5.73,0,*76
1505178067.99,60795,16.25,73234.5,6.45,5.73,5.73,0,*77
1505178069.21,60796,16.25,73228.5,6.45,5.73,5.73,0,*74
1505178070.45,60797,16.25,73232.5,6.47,5.73,5.73,0,*77
1505178071.67,60798,16.25,73228.5,6.45,5.77,5.73,0,*7E
1505178072.88,60799,16.25,73230.5,6.45,5.77,5.73,0,*7F
1505178074.13,60800,16.25,73230.5,6.47,5.81,5.73,0,*7B
1505178075.37,60801,16.25,73230.0,6.47,5.77,5.73,0,*73
1505178076.59,60802,16.25,73234.3,6.45,5.77,5.73,0,*72
1505178077.83,60803,16.25,73230.3,6.47,5.77,5.73,0,*71
1505178079.07,60804,16.25,73232.3,6.47,5.77,5.73,0,*76
1505178080.3,60805,16.25,73230.3,6.47,5.73,5.67,0,*76
1505178081.51,60806,16.25,73230.3,6.47,5.67,5.67,0,*70
1505178082.69,60807,16.25,73234.0,6.45,5.67,5.63,0,*77
1505178083.87,60808,16.25,73230.8,6.45,5.67,5.67,0,*7C
1505178085.07,60809,16.25,73234.0,6.45,5.67,5.73,0,*78
1505178086.27,60810,16.25,73230.5,6.47,5.67,5.67,0,*77
1505178087.5,60811,16.25,73228.3,6.47,5.67,5.73,0,*73
1505178088.68,60812,16.25,73230.5,6.45,5.67,5.67,0,*77
1505178089.9,60813,16.25,73230.0,6.45,5.73,5.73,0,*76
1505178091.15,60814,16.25,73228.3,6.47,5.73,5.73,0,*73
1505178092.36,60815,16.25,73228.3,6.47,5.67,5.67,0,*72
1505178093.57,60816,16.25,73230.5,6.47,5.67,5.67,0,*71
1505178094.77,60817,16.25,73234.0,6.47,5.67,5.63,0,*74
1505178095.95,60818,16.25,73230.8,6.45,5.63,5.63,0,*7D
1505178097.13,60819,16.25,73230.8,6.45,5.67,5.63,0,*78
1505178098.31,60820,16.25,73226.5,6.45,5.67,5.67,0,*76
1505178099.53,60821,16.25,73228.8,6.47,5.67,5.73,0,*70
1505178100.76,60822,16.25,73232.0,6.47,5.67,5.73,0,*73
1505178101.94,60823,16.25,73228.5,6.45,5.67,5.67,0,*75
1505178103.16,60824,16.25,73230.0,6.45,5.73,5.73,0,*72
1505178104.36,60825,16.25,73228.5,6.45,5.73,5.67,0,*76
1505178105.57,60826,16.25,73234.3,6.45,5.73,5.67,0,*75
1505178106.8,60827,16.25,73234.5,6.47,5.73,5.67,0,*76
1505178108.03,60828,16.25,73230.8,6.47,5.73,5.67,0,*79
1505178109.26,60829,16.25,73232.3,6.47,5.67,5.73,0,*78
1505178110.49,60830,16.25,73230.3,6.47,5.73,5.67,0,*70
1505178111.66,60831,16.25,73230.0,6.45,5.67,5.63,0,*72
1505178112.84,60832,16.25,73230.5,6.45,5.67,5.63,0,*71
1505178114.05,60833,16.25,73232.3,6.47,5.67,5.63,0,*72
1505178115.27,60834,16.25,73230.8,6.47,5.67,5.73,0,*74
1505178116.48,60835,16.25,73232.5,6.47,5.67,5.67,0,*70
1505178117.69,60836,16.25,73234.0,6.47,5.67,5.63,0,*77
1505178118.89,60837,16.25,73234.3,6.45,5.63,5.55,0,*75
1505178120.06,60838,16.25,73232.3,6.45,5.67,5.63,0,*7B
1505178121.27,60839,16.25,73232.0,6.47,5.67,5.63,0,*78
1505178122.5,60840,16.25,73234.5,6.47,5.63,5.55,0,*77
1505178123.7,60841,16.25,73234.5,6.47,5.63,5.63,0,*73
1505178124.91,60842,16.25,73232.8,6.47,5.67,5.67,0,*70
1505178126.11,60843,16.25,73234.8,6.45,5.73,5.67,0,*76
1505178127.32,60844,16.25,73232.0,6.47,5.67,5.63,0,*72
1505178128.5,60845,16.25,73230.0,6.45,5.67,5.63,0,*71
1505178129.72,60846,16.25,73232.5,6.45,5.55,5.55,0,*76
1505178130.92,60847,16.25,73230.5,6.45,5.63,5.55,0,*72
1505178132.09,60848,16.25,73230.5,6.45,5.67,5.63,0,*7C
1505178133.29,60849,16.25,73228.8,6.45,5.55,5.63,0,*7C
1505178134.52,60850,16.25,73228.8,6.47,5.63,5.55,0,*76
1505178135.7,60851,16.25,73228.0,6.45,5.67,5.63,0,*74
1505178136.9,60852,16.25,73228.8,6.45,5.63,5.55,0,*76
1505178138.12,60853,16.25,73228.0,6.45,5.55,5.55,0,*72
1505178139.31,60854,16.25,73230.5,6.45,5.55,5.45,0,*74
1505178140.53,60855,16.25,73226.5,6.45,5.51,5.51,0,*74
1505178141.72,60856,16.25,73228.8,6.45,5.51,5.45,0,*72
1505178142.92,60857,16.25,73230.3,6.47,5.45,5.45,0,*74
1505178144.11,60858,16.25,73230.3,6.45,5.55,5.45,0,*78
1505178145.31,60859,16.25,73228.5,6.45,5.63,5.55,0,*7D
1505178146.53,60860,16.25,73230.5,6.45,5.51,5.51,0,*72
1505178147.75,60861,16.25,73230.5,6.45,5.51,5.51,0,*73
1505178148.92,60862,16.25,73230.5,6.49,5.49,5.49,0,*7C
1505178150.14,60863,16.25,73234.0,6.45,5.51,5.51,0,*71
1505178151.36,60864,16.25,73232.3,6.47,5.55,5.45,0,*75
1505178152.58,60865,16.25,73230.8,6.45,5.51,5.51,0,*77
1505178153.79,60866,16.25,73232.8,6.45,5.63,5.55,0,*71
1505178154.99,60867,16.25,73232.5,6.47,5.63,5.63,0,*77
1505178156.17,60868,16.25,73232.0,6.45,5.63,5.63,0,*7A
1505178157.34,60869,16.25,73232.3,6.45,5.63,5.63,0,*7B
1505178158.52,60870,16.25,73232.0,6.45,5.63,5.63,0,*73
1505178159.72,60871,16.25,73232.0,6.45,5.73,5.63,0,*73
1505178160.9,60872,16.25,73234.5,6.45,5.63,5.63,0,*71
1505178162.1,60873,16.25,73234.3,6.45,5.63,5.55,0,*75
1505178163.31,60874,16.25,73232.5,6.47,5.67,5.67,0,*75
1505178164.49,60875,16.25,73232.5,6.45,5.63,5.63,0,*76
1505178165.69,60876,16.25,73230.8,6.47,5.67,5.67,0,*77
1505178166.87,60877,16.25,73230.8,6.45,5.67,5.67,0,*74
1505178168.1,60878,16.25,73230.3,6.45,5.55,5.55,0,*7B
1505178169.3,60879,16.25,73232.3,6.45,5.63,5.55,0,*7F
1505178170.52,60880,16.25,73230.5,6.47,5.63,5.55,0,*7B
1505178171.7,60881,16.25,73232.5,6.45,5.63,5.63,0,*7D
1505178172.93,60882,16.19,73230.0,6.47,5.63,5.55,0,*79
1505178174.18,60883,16.25,73234.5,6.47,5.55,5.55,0,*7D
1505178175.42,60884,16.25,73234.3,6.47,5.55,5.51,0,*7E
1505178176.64,60885,16.25,73230.3,6.45,5.55,5.51,0,*7D
1505178177.87,60886,16.25,73234.8,6.47,5.55,5.63,0,*7D
1505178179.07,60887,16.25,73232.0,6.45,5.63,5.55,0,*7E
1505178180.26,60888,16.25,73234.0,6.45,5.55,5.63,0,*71
1505178181.48,60889,16.25,73234.3,6.45,5.55,5.55,0,*75
1505178182.66,60890,16.25,73228.8,6.45,5.63,5.63,0,*7D
1505178183.86,60891,16.25,73232.0,6.45,5.63,5.55,0,*79
1505178185.09,60892,16.25,73232.3,6.47,5.63,5.55,0,*78
1505178186.29,60893,16.25,73234.5,6.47,5.63,5.63,0,*7C
1505178187.54,60894,16.25,73234.0,6.47,5.55,5.55,0,*7B
1505178188.78,60895,16.25,73232.5,6.47,5.55,5.51,0,*7E
1505178190.03,60896,16.25,73234.3,6.47,5.55,5.55,0,*79
1505178191.25,60897,16.25,73234.8,6.47,5.51,5.45,0,*7D
1505178192.47,60898,16.25,73232.5,6.45,5.51,5.51,0,*75
1505178193.72,60899,16.25,73234.8,6.47,5.51,5.55,0,*72
1505178194.95,60900,16.25,73232.5,6.47,5.63,5.51,0,*76
1505178196.17,60901,16.25,73230.5,6.45,5.55,5.55,0,*74
1505178197.37,60902,16.25,73236.0,6.45,5.63,5.51,0,*76
1505178198.62,60903,16.25,73232.8,6.47,5.55,5.55,0,*74
1505178199.84,60904,16.25,73232.3,6.47,5.55,5.63,0,*76
1505178201.04,60905,16.25,73230.8,6.45,5.63,5.55,0,*75
1505178202.24,60906,16.25,73232.5,6.45,5.63,5.55,0,*76
1505178203.47,60907,16.25,73228.3,6.47,5.63,5.55,0,*75
1505178204.65,60908,16.25,73234.0,6.45,5.63,5.63,0,*7D
1505178205.82,60909,16.25,73234.0,6.45,5.63,5.63,0,*7C
1505178207.05,60910,16.25,73230.3,6.47,5.63,5.55,0,*73
1505178208.25,60911,16.25,73232.5,6.47,5.63,5.63,0,*77
1505178209.46,60912,16.25,73230.0,6.47,5.63,5.63,0,*74
1505178210.68,60913,16.25,73230.0,6.45,5.55,5.55,0,*77
1505178211.9,60914,16.25,73230.8,6.47,5.55,5.63,0,*77
1505178213.08,60915,16.25,73234.8,6.45,5.63,5.63,0,*71
1505178214.27,60916,16.25,73236.3,6.45,5.55,5.63,0,*77
1505178215.5,60917,16.25,73234.0,6.47,5.63,5.55,0,*74
1505178216.72,60918,16.25,73232.0,6.45,5.55,5.55,0,*7C
1505178217.94,60919,16.25,73234.0,6.47,5.55,5.63,0,*7A
1505178219.16,60920,16.25,73230.8,6.45,5.55,5.55,0,*77
1505178220.37,60921,16.25,73230.8,6.47,5.63,5.63,0,*74
1505178221.57,60922,16.25,73228.5,6.47,5.63,5.63,0,*77
1505178222.79,60923,16.25,73234.3,6.45,5.55,5.55,0,*74
1505178224.02,60924,16.25,73234.0,6.47,5.63,5.55,0,*74
1505178225.26,60925,16.25,73230.8,6.47,5.55,5.55,0,*70
1505178226.49,60926,16.25,73232.0,6.47,5.55,5.63,0,*76
1505178227.69,60927,16.25,73232.8,6.45,5.63,5.51,0,*71
1505178228.93,60928,16.25,73234.0,6.47,5.55,5.55,0,*7D
1505178230.16,60929,16.25,73230.8,6.47,5.63,5.51,0,*7D
1505178231.41,60930,16.25,73232.0,6.47,5.55,5.55,0,*74
1505178232.64,60931,16.25,73232.5,6.47,5.63,5.55,0,*70
1505178233.83,60932,16.25,73228.0,6.45,5.45,5.55,0,*75
1505178235.02,60933,16.25,73234.0,6.47,5.45,5.45,0,*77
1505178236.19,60934,16.25,73232.5,6.45,5.45,5.45,0,*72
1505178237.39,60935,16.25,73230.0,6.49,5.55,5.49,0,*72
1505178238.63,60936,16.25,73230.5,6.47,5.55,5.55,0,*72
1505178239.88,60937,16.25,73228.8,6.47,5.55,5.51,0,*77
1505178241.07,60938,16.25,73228.0,6.45,5.51,5.45,0,*7B
1505178242.24,60939,16.25,73228.8,6.45,5.45,5.45,0,*7F
1505178243.43,60940,16.25,73234.3,6.47,5.45,5.45,0,*73
1505178244.6,60941,16.25,73230.8,6.45,5.45,5.45,0,*70
1505178245.82,60942,16.25,73230.5,6.45,5.51,5.51,0,*73
1505178247.07,60943,16.25,73234.8,6.47,5.51,5.51,0,*70
1505178248.31,60944,16.25,73230.3,6.47,5.51,5.51,0,*77
1505178249.53,60945,16.25,73228.3,6.47,5.45,5.51,0,*73
1505178250.75,60946,16.25,73228.3,6.47,5.51,5.45,0,*70
1505178251.95,60947,16.25,73234.8,6.47,5.45,5.45,0,*74
1505178253.11,60948,16.25,73232.3,6.45,5.45,5.45,0,*79
1505178254.31,60949,16.25,73230.8,6.47,5.45,5.41,0,*7E
1505178255.55,60950,16.25,73232.0,6.47,5.51,5.51,0,*72
1505178256.75,60951,16.25,73230.8,6.45,5.51,5.45,0,*74
1505178257.96,60952,16.25,73230.8,6.47,5.51,5.45,0,*75
1505178259.21,60953,16.25,73232.5,6.47,5.55,5.55,0,*71
1505178260.44,60954,16.25,73232.3,6.47,5.63,5.55,0,*73
1505178261.69,60955,16.25,73234.3,6.47,5.55,5.51,0,*73
1505178262.91,60956,16.25,73232.5,6.45,5.51,5.51,0,*76
1505178264.13,60957,16.25,73232.0,6.45,5.51,5.51,0,*77
1505178265.32,60958,16.25,73232.5,6.47,5.45,5.45,0,*7A
1505178266.57,60959,16.25,73230.0,6.47,5.51,5.51,0,*7B
1505178267.79,60960,16.25,73234.3,6.45,5.51,5.55,0,*77
1505178268.98,60961,16.25,73232.0,6.45,5.45,5.51,0,*77
1505178270.2,60962,16.25,73228.8,6.45,5.51,5.51,0,*71
1505178271.45,60963,16.25,73232.8,6.47,5.55,5.51,0,*76
1505178272.67,60964,16.25,73234.0,6.45,5.55,5.51,0,*73
1505178273.92,60965,16.25,73228.8,6.47,5.55,5.51,0,*70
1505178275.16,60966,16.25,73232.3,6.47,5.51,5.55,0,*73
1505178276.38,60967,16.25,73232.3,6.45,5.55,5.51,0,*70
1505178277.61,60968,16.25,73234.0,6.47,5.63,5.55,0,*7C
1505178278.83,60969,16.25,73230.0,6.45,5.51,5.55,0,*7E
1505178280.08,60970,16.25,73234.3,6.47,5.55,5.51,0,*74
1505178281.31,60971,16.25,73228.3,6.47,5.63,5.51,0,*70
1505178282.54,60972,16.25,73230.3,6.47,5.63,5.55,0,*77
1505178283.78,60973,16.25,73232.3,6.47,5.55,5.55,0,*73
1505178284.97,60974,16.25,73232.8,6.45,5.51,5.45,0,*73
1505178286.18,60975,16.25,73232.3,6.47,5.41,5.33,0,*70
1505178287.37,60976,16.25,73234.0,6.45,5.45,5.51,0,*71
1505178288.59,60977,16.25,73232.5,6.47,5.51,5.45,0,*72
1505178289.81,60978,16.25,73232.3,6.47,5.51,5.45,0,*7D
1505178291.0,60979,16.25,73234.3,6.45,5.45,5.51,0,*7E
1505178292.22,60980,16.25,73234.8,6.47,5.45,5.51,0,*7A
1505178293.47,60981,16.25,73232.5,6.47,5.51,5.51,0,*7E
1505178294.69,60982,16.25,73232.3,6.49,5.55,5.55,0,*73
1505178295.94,60983,16.25,73232.3,6.47,5.51,5.51,0,*7C
1505178297.19,60984,16.25,73232.8,6.47,5.51,5.51,0,*7B
1505178298.39,60985,16.25,73230.0,6.45,5.51,5.63,0,*79
1505178299.63,60986,16.25,73234.8,6.47,5.51,5.55,0,*7D
1505178300.83,60987,16.25,73234.0,6.45,5.45,5.55,0,*7B
1505178301.99,60988,16.25,73232.5,6.45,5.45,5.45,0,*75
1505178303.21,60989,16.25,73234.5,6.47,5.51,5.45,0,*73
1505178304.4,60990,16.25,73230.0,6.45,5.51,5.45,0,*79
1505178305.62,60991,16.25,73234.5,6.47,5.51,5.45,0,*7A
1505178306.8,60992,16.25,73228.8,6.45,5.41,5.45,0,*7A
1505178307.96,60993,16.25,73230.3,6.45,5.45,5.45,0,*7F
1505178309.13,60994,16.25,73234.3,6.45,5.45,5.45,0,*78
1505178310.38,60995,16.25,73230.5,6.47,5.51,5.51,0,*7B
1505178311.54,60996,16.25,73230.0,6.45,5.45,5.41,0,*7E
1505178312.71,60997,16.25,73234.3,6.45,5.45,5.45,0,*7B
1505178313.9,60998,16.25,73228.0,6.47,5.45,5.45,0,*76
1505178315.12,60999,16.25,73230.3,6.45,5.51,5.51,0,*75
1505178316.32,61000,16.25,73228.3,6.45,5.51,5.45,0,*78
1505178317.53,61001,16.25,73232.0,6.45,5.51,5.51,0,*7C
1505178318.73,61002,16.25,73230.5,6.47,5.45,5.45,0,*7D
1505178319.92,61003,16.25,73230.5,6.45,5.51,5.45,0,*7B
1505178321.14,61004,16.25,73228.3,6.45,5.51,5.51,0,*79
1505178322.34,61005,16.25,73228.8,6.45,5.45,5.51,0,*7D
1505178323.5,61006,16.25,73228.3,6.45,5.45,5.45,0,*7B
1505178324.67,61007,16.25,73226.8,6.45,5.41,5.45,0,*7E
1505178325.84,61008,16.25,73228.8,6.45,5.41,5.45,0,*71
1505178327.01,61009,16.25,73224.0,6.45,5.45,5.45,0,*74
1505178328.7,61010,16.25,73226.3,6.47,5.51,5.51,0,*7E
1505178329.48,61011,16.25,73228.8,6.45,5.51,5.51,0,*7D
1505178330.67,61012,16.25,73230.3,6.47,5.45,5.45,0,*7C
1505178331.84,61013,16.25,73230.0,6.45,5.45,5.41,0,*7B
1505178333.03,61014,16.25,73228.0,6.45,5.51,5.45,0,*7D
1505178334.25,61015,16.25,73232.3,6.45,5.51,5.51,0,*79
1505178335.47,61016,16.25,73234.0,6.45,5.51,5.51,0,*7A
1505178336.69,61017,16.25,73232.5,6.45,5.51,5.51,0,*7B
1505178337.89,61018,16.25,73230.0,6.45,5.45,5.51,0,*71
1505178339.11,61019,16.25,73234.0,6.45,5.55,5.51,0,*71
1505178340.3,61020,16.25,73234.8,6.45,5.55,5.63,0,*7A
1505178341.52,61021,16.25,73232.8,6.45,5.55,5.55,0,*7E
1505178342.74,61022,16.25,73230.0,6.45,5.55,5.55,0,*7D
1505178343.99,61023,16.25,73234.5,6.47,5.51,5.51,0,*7E
1505178345.21,61024,16.25,73232.8,6.45,5.55,5.51,0,*7F
1505178346.46,61025,16.25,73234.3,6.47,5.55,5.55,0,*78
1505178347.7,61026,16.25,73234.3,6.47,5.55,5.51,0,*7F
1505178348.9,61027,16.25,73230.8,6.47,5.63,5.45,0,*7E
1505178350.12,61028,16.25,73234.3,6.45,5.51,5.55,0,*73
1505178351.37,61029,16.25,73232.0,6.47,5.55,5.55,0,*74
1505178352.62,61030,16.25,73234.0,6.47,5.55,5.55,0,*7C
1505178353.84,61031,16.25,73232.5,6.45,5.51,5.55,0,*7B
1505178355.08,61032,16.25,73238.3,6.47,5.55,5.55,0,*7E
1505178356.28,61033,16.25,73236.5,6.45,5.55,5.63,0,*78
1505178357.48,61034,16.25,73232.5,6.45,5.63,5.55,0,*7F
1505178358.68,61035,16.25,73240.0,6.45,5.55,5.63,0,*7E
1505178359.9,61036,16.25,73236.0,6.47,5.63,5.55,0,*7F
1505178361.15,61037,16.25,73236.3,6.47,5.55,5.55,0,*7B
1505178362.37,61038,16.25,73236.8,6.47,5.45,5.51,0,*71
1505178363.62,61039,16.25,73234.5,6.47,5.55,5.55,0,*75
1505178364.84,61040,16.25,73238.3,6.45,5.51,5.55,0,*7D
1505178366.03,61041,16.25,73238.0,6.45,5.51,5.45,0,*7D
1505178367.25,61042,16.25,73236.5,6.47,5.51,5.45,0,*7C
1505178368.47,61043,16.25,73236.5,6.45,5.51,5.51,0,*7A
1505178369.72,61044,16.25,73238.5,6.47,5.51,5.55,0,*7B
1505178370.91,61045,16.25,73240.3,6.47,5.45,5.45,0,*7E
1505178372.13,61046,16.25,73238.5,6.47,5.51,5.45,0,*78
1505178373.3,61047,16.25,73238.0,6.45,5.45,5.45,0,*7E
1505178374.47,61048,16.25,73236.8,6.45,5.41,5.45,0,*75
1505178375.67,61049,16.25,73238.3,6.47,5.41,5.45,0,*76
1505178376.89,61050,16.25,73238.0,6.47,5.45,5.51,0,*7F
1505178378.09,61051,16.25,73240.0,6.45,5.41,5.51,0,*78
1505178379.26,61052,16.25,73240.0,6.45,5.41,5.41,0,*7A
1505178380.43,61053,16.25,73242.0,6.45,5.33,5.41,0,*7E
1505178381.61,61054,16.25,73238.0,6.45,5.41,5.41,0,*7C
1505178382.78,61055,16.25,73240.3,6.45,5.33,5.33,0,*7D
1505178383.95,61056,16.25,73240.5,6.45,5.29,5.29,0,*7E
1505178385.15,61057,16.25,73238.8,6.47,5.23,5.29,0,*77
1505178386.35,61058,16.25,73240.5,6.47,5.29,5.33,0,*79
1505178387.54,61059,16.25,73238.5,6.47,5.29,5.29,0,*73
1505178388.73,61060,16.25,73236.0,6.45,5.19,5.23,0,*72
1505178389.94,61061,16.25,73242.8,6.47,5.11,5.19,0,*70
1505178391.12,61062,16.25,73242.3,6.45,5.11,5.11,0,*79
1505178392.33,61063,16.25,73242.3,6.47,5.07,5.11,0,*7D
1505178393.51,61064,16.25,73242.0,6.45,5.07,5.07,0,*7F
1505178394.74,61065,16.25,73238.8,6.45,5.01,5.01,0,*7E
1505178396.0,61066,16.25,73236.0,6.47,4.93,4.97,0,*7B
1505178397.2,61067,16.25,73238.0,6.45,4.85,4.93,0,*7B
1505178398.44,61068,16.25,73234.0,6.47,4.81,4.75,0,*7A
1505178399.64,61069,16.25,73236.3,6.45,4.71,4.81,0,*7D
1505178400.85,61070,16.25,73238.8,6.45,4.53,4.71,0,*7A
1505178402.11,61071,16.25,73236.0,6.47,4.59,4.71,0,*73
1505178403.31,61072,16.25,73236.3,6.47,4.49,4.53,0,*71
1505178404.51,61073,16.25,73236.0,6.47,4.37,4.49,0,*72
1505178405.71,61074,16.25,73236.3,6.45,4.31,4.49,0,*71
1505178406.9,61075,16.25,73238.0,6.45,4.27,4.37,0,*7E
1505178408.1,61076,16.25,73234.0,6.47,4.15,4.27,0,*7F
1505178409.27,61077,16.25,73236.8,6.45,4.11,4.15,0,*79
1505178410.5,61078,16.25,73240.0,6.45,4.05,4.01,0,*76
1505178411.68,61079,16.25,73238.5,6.45,3.93,3.93,0,*73
1505178412.88,61080,16.25,73238.0,6.45,3.81,4.01,0,*7A
1505178414.06,61081,16.25,73234.5,6.45,3.81,3.93,0,*77
1505178415.26,61082,16.25,73236.8,6.47,3.93,3.93,0,*75
1505178416.52,61083,16.25,73236.0,6.43,3.79,3.75,0,*7C
1505178417.73,61084,16.25,73236.3,6.45,3.89,3.71,0,*76
1505178418.93,61085,16.25,73236.3,6.45,3.89,3.67,0,*70
1505178420.1,61086,16.25,73240.0,6.45,3.81,3.59,0,*76
1505178421.3,61087,16.25,73236.8,6.45,3.93,3.67,0,*79
1505178422.51,61088,16.25,73238.5,6.45,3.89,3.67,0,*7D
1505178423.73,61089,16.25,73242.3,6.43,3.97,3.63,0,*71
1505178424.93,61090,16.25,73238.3,6.43,3.89,3.63,0,*76
1505178426.17,61091,16.25,73238.0,6.43,3.85,3.41,0,*7B
1505178427.42,61092,16.25,73234.5,6.43,3.97,3.41,0,*7B
1505178428.65,61093,16.25,73236.3,6.43,3.97,3.63,0,*7A
1505178429.85,61094,16.25,73238.8,6.43,4.07,3.63,0,*73
1505178431.05,61095,16.25,73236.3,6.45,4.23,3.71,0,*71
1505178432.25,61096,16.25,73236.3,6.43,4.19,3.85,0,*76
1505178433.48,61097,16.25,73236.8,6.43,4.27,3.97,0,*79
1505178434.68,61098,16.25,73236.5,6.45,4.31,3.93,0,*73
1505178435.89,61099,16.25,73238.8,6.45,4.31,3.93,0,*72
1505178437.07,61100,16.25,73238.8,6.45,4.37,3.93,0,*75
1505178438.27,61101,16.25,73236.0,6.45,4.41,4.01,0,*79
1505178439.46,61102,16.25,73236.5,6.45,4.49,4.01,0,*72
1505178440.68,61103,16.25,73238.8,6.43,4.49,4.01,0,*75
1505178441.91,61104,16.25,73234.8,6.43,4.45,3.97,0,*76
1505178443.13,61105,16.25,73236.0,6.45,4.59,4.01,0,*74
1505178444.35,61106,16.25,73232.8,6.43,4.49,4.01,0,*70
1505178445.55,61107,16.25,73236.5,6.43,4.49,4.07,0,*77
1505178446.77,61108,16.25,73236.5,6.43,4.49,4.01,0,*7E
1505178447.99,61109,16.25,73236.5,6.43,4.49,4.01,0,*7F
1505178449.22,61110,16.25,73238.8,6.43,4.67,4.07,0,*7D
1505178450.46,61111,16.25,73234.3,6.43,4.71,4.07,0,*7B
1505178451.63,61112,16.25,73234.8,6.45,4.85,4.15,0,*76
1505178452.8,61113,16.25,73236.5,6.41,4.81,4.19,0,*7B
1505178454.01,61114,16.25,73232.0,6.41,4.93,4.33,0,*77
1505178455.24,61115,16.25,73236.5,6.43,4.93,4.37,0,*70
1505178456.47,61116,16.25,73236.0,6.43,5.05,4.45,0,*78
1505178457.68,61117,16.25,73232.8,6.45,5.19,4.63,0,*76
1505178458.89,61118,16.25,73234.3,6.45,5.19,4.75,0,*7E
1505178460.06,61119,16.25,73234.0,6.45,5.29,4.85,0,*73
1505178461.31,61120,16.25,73234.3,6.43,5.27,4.93,0,*76
1505178462.56,61121,16.25,73236.3,6.43,5.27,5.05,0,*79
1505178463.78,61122,16.25,73232.0,6.43,5.29,5.05,0,*74
1505178464.98,61123,16.25,73238.0,6.43,5.37,5.15,0,*7B
1505178466.19,61124,16.25,73236.8,6.43,5.41,5.19,0,*71
1505178467.39,61125,16.25,73234.8,6.43,5.41,5.29,0,*73
1505178468.56,61126,16.25,73236.8,6.41,5.49,5.41,0,*74
1505178469.77,61127,16.25,73232.3,6.43,5.59,5.49,0,*7E
1505178470.95,61128,16.25,73236.8,6.41,5.63,5.59,0,*7B
1505178472.16,61129,16.25,73238.0,6.43,5.63,5.59,0,*78
1505178473.66,61130,16.25,73238.8,6.43,5.71,5.63,0,*7A
1505178474.56,61131,16.25,73238.0,6.43,5.59,5.59,0,*78
1505178475.77,61132,16.25,73236.0,6.43,5.63,5.59,0,*72
1505178476.98,61133,16.25,73234.8,6.43,5.63,5.59,0,*73
1505178478.19,61134,16.25,73234.8,6.43,5.63,5.59,0,*74
1505178479.44,61135,16.25,73236.3,6.43,5.51,5.51,0,*7C
1505178480.68,61136,16.25,73234.8,6.43,5.51,5.51,0,*7F
1505178481.93,61137,16.25,73230.0,6.43,5.51,5.51,0,*7E
1505178483.18,61138,16.25,73238.0,6.43,5.51,5.51,0,*71
1505178484.43,61139,16.25,73236.3,6.43,5.51,5.51,0,*70
1505178485.66,61140,16.25,73238.0,6.43,5.51,5.59,0,*76
1505178486.9,61141,16.25,73234.8,6.43,5.51,5.51,0,*7F
1505178488.13,61142,16.25,73236.5,6.43,5.59,5.51,0,*74
1505178489.34,61143,16.25,73236.5,6.43,5.59,5.59,0,*7D
1505178490.54,61144,16.25,73238.0,6.43,5.59,5.59,0,*7A
1505178491.77,61145,16.25,73238.5,6.43,5.49,5.51,0,*72
1505178492.99,61146,16.25,73236.8,6.43,5.51,5.59,0,*70
1505178494.24,61147,16.25,73232.3,6.43,5.51,5.51,0,*79
1505178495.46,61148,16.25,73234.5,6.45,5.55,5.55,0,*70
1505178496.67,61149,16.25,73240.3,6.43,5.59,5.59,0,*77
1505178497.89,61150,16.25,73236.0,6.43,5.51,5.49,0,*76
1505178499.09,61151,16.25,73238.0,6.43,5.49,5.49,0,*7E
1505178500.31,61152,16.25,73236.8,6.43,5.51,5.49,0,*74
1505178501.56,61153,16.25,73236.5,6.43,5.51,5.51,0,*7C
1505178502.78,61154,16.25,73236.5,6.43,5.51,5.49,0,*72
1505178504.0,61155,16.25,73238.0,6.43,5.51,5.49,0,*73
1505178505.22,61156,16.25,73238.0,6.43,5.51,5.41,0,*78
1505178506.45,61157,16.25,73236.8,6.43,5.49,5.51,0,*71
1505178507.65,61158,16.25,73236.8,6.43,5.41,5.41,0,*77
1505178508.87,61159,16.25,73236.8,6.43,5.49,5.51,0,*7F
1505178510.05,61160,16.25,73236.0,6.41,5.41,5.49,0,*76
1505178511.25,61161,16.25,73234.8,6.43,5.41,5.41,0,*7D
1505178512.45,61162,16.25,73234.3,6.43,5.41,5.37,0,*7F
1505178513.65,61163,16.25,73232.3,6.43,5.41,5.41,0,*7F
1505178514.85,61164,16.25,73232.0,6.43,5.49,5.49,0,*78
1505178516.05,61165,16.25,73234.8,6.43,5.41,5.49,0,*71
1505178517.27,61166,16.25,73234.3,6.43,5.51,5.49,0,*73
1505178518.47,61167,16.25,73234.3,6.43,5.41,5.41,0,*7B
1505178519.67,61168,16.25,73234.8,6.47,5.41,5.45,0,*74
1505178520.87,61169,16.25,73234.8,6.43,5.37,5.49,0,*7C
1505178522.07,61170,16.25,73238.0,6.43,5.49,5.49,0,*7D
1505178523.27,61171,16.25,73234.5,6.43,5.41,5.49,0,*74
1505178524.47,61172,16.25,73236.3,6.43,5.41,5.49,0,*77
1505178525.67,61173,16.25,73232.8,6.43,5.41,5.49,0,*76
1505178526.86,61174,16.25,73234.0,6.45,5.51,5.45,0,*7A
1505178528.11,61175,16.25,73236.3,6.47,5.51,5.51,0,*7C